Regional Weather Roundup
Issued by NWS

Home | Current Version | Previous Version | Graphics & Text | Print | Product List | Glossary On
Versions: 1 2 3 4 5 6 7 8 9 10 11 12 13 14 15 16 17 18 19 20 21 22 23 24 25 26 27 28 29 30 31 32 33 34 35 36 37 38 39 40 41 42 43 44 45 46 47 48 49 50
000
ASUS45 KSLC 230810
RWRUT

UTAH REGIONAL WEATHER ROUNDUP
NATIONAL WEATHER SERVICE SALT LAKE CITY UT
200 AM MDT TUE SEP 23 2014

UTZ001>011-023>025-230900-

NORTHERN UTAH

CITY           SKY/WX    TMP DP  RH WIND       PRES   REMARKS
HILL AFB       CLOUDY    64  49  57 E9        30.15R
LOGAN          MOCLDY    61  54  77 SE3       30.14R
OGDEN          CLOUDY    64  51  62 S7        30.12S
PROVO AIRPORT  CLOUDY    61  52  72 SE6       30.16S
SALT LAKE CITY MOCLDY    64  52  64 SE6       30.12R
VERNAL         PTCLDY    56  49  77 W3        30.19R
WENDOVER       CLEAR     61  52  72 CALM      30.11S
HEBER CITY     CLOUDY    55  50  82 CALM      30.21S
WEST JORDAN    CLOUDY    64  52  63 CALM      30.14S

$$

UTZ012>022-026-027-230900-

SOUTHERN UTAH

CITY           SKY/WX    TMP DP  RH WIND       PRES   REMARKS
BRYCE CANYON   CLEAR     41  37  86 W8        30.36R
CEDAR CITY     CLEAR     54  40  59 NE7       30.22R
MILFORD        CLEAR     56  46  69 SW8       30.17R
MOAB/CYNLANDS  CLOUDY    66  55  67 CALM      30.13R
PRICE          CLEAR     58  52  80 N7        30.23R
ST GEORGE      CLOUDY    68  45  42 CALM      30.08R
KANAB            N/A     54  45  71 NE6       30.23R

$$

REGIONAL REPORTS     COLORADO/ARIZONA

CITY           SKY/WX    TMP DP  RH WIND       PRES   REMARKS
CRAIG, CO      CLOUDY    52  48  86 SE5       30.24R
GRAND JUNCTION CLOUDY    60  53  77 E5        30.16R
RIFLE          CLOUDY    58  52  80 CALM      30.22S
MONTROSE       MOCLDY    59  49  69 SE9       30.25S
CORTEZ         CLEAR     49  46  90 NE3       30.27R
PAGE, AZ       CLEAR     71  42  35 SW3       30.13R
GRAND CANYON   CLEAR     43  39  86 CALM      30.32R
KINGMAN        CLEAR     59  37  44 SE3       30.09S
FLAGSTAFF      CLEAR     47  43  86 CALM      30.34S

$$

REGIONAL REPORTS    NEVADA/IDAHO/WYOMING

CITY           SKY/WX    TMP DP  RH WIND       PRES   REMARKS
LAS VEGAS, NV  CLEAR     79  38  22 SW9       29.95R
ELY            CLEAR     49  44  83 S13       30.25S
ELKO           CLEAR     54  43  66 E6        30.15R
POCATELLO, ID  CLEAR     50  50 100 CALM      30.13S
BURLEY         CLEAR     52  48  86 CALM      30.10R
EVANSTON, WY   CLOUDY    53  44  71 SW6       30.28R
ROCK SPRINGS   CLEAR     50  43  77 S3        30.25R

$$



USA.gov is the U.S. government's official web portal to all federal, state and local government web resources and services.